Shawano, WI

5:02 PM CDT on March 26, 2017 (GMT -0500)
Shawano

Weather History for KEZS - June, 2014

Change the Weather History Date:

Tuesday, June 17, 2014

  Actual Average (KCLI) Record (KCLI)
Temperature  
Mean Temperature 75 °F -  
Max Temperature 86 °F 74 °F 91 °F (2006)
Min Temperature 64 °F 52 °F 35 °F (1958)
Cooling Degree Days 10    
Growing Degree Days 25 (Base 50)    
Moisture  
Dew Point 63 °F    
Average Humidity 69    
Maximum Humidity 94    
Minimum Humidity 40    
Precipitation  
Precipitation 0.27 in - - ()
Sea Level Pressure  
Sea Level Pressure 29.82 in    
Wind  
Wind Speed 6 mph (WSW)    
Max Wind Speed 20 mph    
Max Gust Speed 23 mph    
Visibility 9 miles    
Events Rain , Thunderstorm    
Averages and records for this station are not official NWS values.
T = Trace of Precipitation, MM = Missing Value Source: NWS Daily Summary

Daily Weather History Graph

Daily Weather History Graph

Search for Another Location

Airport or City:

Trip Planner

Search our weather history database for the weather conditions in past years. The results will help you decide how hot, cold, wet, or windy it might be!

Date:

Astronomy

Jun. 17, 2014 Rise Set
Actual Time 5:07 AM CDT 8:42 PM CDT
Civil Twilight 4:30 AM CDT 9:19 PM CDT
Nautical Twilight 3:41 AM CDT 10:09 PM CDT
Astronomical Twilight 2:36 AM CDT 11:14 PM CDT
Moon 11:58 PM CDT (6/17) 10:33 AM CDT (6/17)
Length of Visible Light 16h 49m
Length of Day
15h 34m
Waning Gibbous, 73% of the Moon is Illuminated
Jun 17
Waning Gibbous
Jun 19
Last Quarter
Jun 27
New
Jul 5
First Quarter
Jul 12
Full

Hourly Weather History & Observations

Time (CDT) Temp. Heat Index Dew Point Humidity Pressure Visibility Wind Dir Wind Speed Gust Speed Precip Events Conditions
12:15 AM 72.7 °F - 61.0 °F 67% 29.84 in 10.0 mi SSE 6.9 mph - N/A Rain , Thunderstorm Light Thunderstorms and Rain
12:35 AM 72.0 °F - 61.0 °F 68% 29.83 in 10.0 mi SSE 8.1 mph - 0.01 in Rain , Thunderstorm Rain
1:15 AM 68.0 °F - 63.5 °F 85% 29.84 in 5.0 mi South 13.8 mph 20.7 mph 0.06 in Rain , Thunderstorm Light Thunderstorms and Rain
1:35 AM 67.1 °F - 63.5 °F 88% 29.82 in 7.0 mi SSE 12.7 mph 21.9 mph 0.11 in Rain , Thunderstorm Light Thunderstorms and Rain
1:55 AM 66.7 °F - 63.5 °F 89% 29.76 in 5.0 mi ESE 19.6 mph 23.0 mph 0.19 in Rain , Thunderstorm Rain
2:15 AM 66.0 °F - 61.7 °F 86% 29.73 in 10.0 mi SE 16.1 mph 23.0 mph 0.03 in Rain Light Rain
2:35 AM 65.5 °F - 60.4 °F 84% 29.75 in 10.0 mi SE 6.9 mph - 0.05 in Rain Light Rain
2:55 AM 65.3 °F - 61.2 °F 86% 29.78 in 10.0 mi WSW 3.5 mph - 0.05 in   Light Drizzle
3:15 AM 65.3 °F - 61.2 °F 86% 29.76 in 10.0 mi Calm Calm - N/A   Light Drizzle
3:35 AM 65.8 °F - 62.1 °F 88% 29.74 in 10.0 mi Calm Calm - N/A   Overcast
3:55 AM 66.2 °F - 62.4 °F 88% 29.75 in 10.0 mi North 3.5 mph - 0.01 in   Overcast
4:15 AM 65.8 °F - 62.6 °F 89% 29.76 in 10.0 mi Calm Calm - N/A   Overcast
4:35 AM 65.3 °F - 62.6 °F 91% 29.73 in 4.0 mi SSE 9.2 mph - 0.01 in   Drizzle
4:55 AM 65.3 °F - 62.8 °F 92% 29.74 in 5.0 mi Calm Calm - 0.02 in   Drizzle
5:15 AM 65.3 °F - 62.6 °F 91% 29.74 in 10.0 mi Calm Calm - N/A   Mostly Cloudy
5:35 AM 64.9 °F - 62.8 °F 93% 29.73 in 7.0 mi Calm Calm - N/A   Mostly Cloudy
5:55 AM 64.9 °F - 63.0 °F 93% 29.72 in 7.0 mi Calm Calm - N/A   Overcast
6:15 AM 65.3 °F - 63.1 °F 93% 29.74 in 7.0 mi Calm Calm - N/A   Overcast
6:35 AM 65.1 °F - 63.1 °F 93% 29.74 in 10.0 mi Calm Calm - N/A   Overcast
6:55 AM 65.3 °F - 63.1 °F 93% 29.75 in 10.0 mi Calm Calm - N/A   Overcast
7:35 AM 65.3 °F - 63.5 °F 94% 29.77 in 3.0 mi NNW 3.5 mph - N/A   Overcast
7:55 AM 65.5 °F - 63.7 °F 94% 29.79 in 3.0 mi NW 4.6 mph - N/A   Overcast
8:15 AM 65.8 °F - 63.9 °F 93% 29.78 in 10.0 mi Calm Calm - N/A   Overcast
8:35 AM 66.2 °F - 63.7 °F 92% 29.79 in 10.0 mi West 4.6 mph - N/A   Overcast
8:55 AM 67.3 °F - 64.8 °F 92% 29.77 in 10.0 mi Calm Calm - N/A   Mostly Cloudy
9:15 AM 68.5 °F - 64.8 °F 88% 29.78 in 10.0 mi West 5.8 mph - N/A   Overcast
9:35 AM 69.6 °F - 63.9 °F 82% 29.78 in 10.0 mi WNW 5.8 mph - N/A   Mostly Cloudy
9:55 AM 70.0 °F - 64.0 °F 81% 29.77 in 10.0 mi Calm Calm - N/A   Scattered Clouds
10:15 AM 72.0 °F - 65.1 °F 79% 29.78 in 10.0 mi WNW 5.8 mph - N/A   Scattered Clouds
10:35 AM 73.6 °F - 64.2 °F 72% 29.78 in 10.0 mi WNW 3.5 mph - N/A   Scattered Clouds
10:55 AM 75.4 °F - 64.2 °F 68% 29.79 in 10.0 mi WNW 6.9 mph - N/A   Scattered Clouds
11:15 AM 76.8 °F - 64.6 °F 66% 29.79 in 10.0 mi WNW 6.9 mph - N/A   Scattered Clouds
11:35 AM 78.3 °F - 64.6 °F 63% 29.79 in 10.0 mi WNW 6.9 mph - N/A   Scattered Clouds
11:55 AM 79.5 °F - 64.6 °F 60% 29.81 in 10.0 mi WNW 8.1 mph - N/A   Clear
12:15 PM 80.4 °F 82.1 °F 64.6 °F 58% 29.82 in 10.0 mi West 8.1 mph - N/A   Clear
12:35 PM 81.1 °F 82.7 °F 64.2 °F 56% 29.82 in 10.0 mi West 6.9 mph - N/A   Clear
12:55 PM 82.4 °F 84.1 °F 64.6 °F 55% 29.83 in 10.0 mi WSW 10.4 mph - N/A   Clear
1:15 PM 82.8 °F 84.2 °F 64.2 °F 53% 29.83 in 10.0 mi NW 8.1 mph - N/A   Clear
1:35 PM 83.5 °F 83.9 °F 61.2 °F 47% 29.83 in 10.0 mi NW 5.8 mph - N/A   Clear
1:55 PM 83.5 °F 83.7 °F 61.0 °F 46% 29.84 in 10.0 mi West 4.6 mph - N/A   Clear
2:15 PM 84.4 °F 84.4 °F 60.3 °F 44% 29.84 in 10.0 mi WNW 4.6 mph - N/A   Clear
2:35 PM 84.6 °F 84.8 °F 61.0 °F 45% 29.84 in 10.0 mi West 5.8 mph - N/A   Scattered Clouds
2:55 PM 86.0 °F 86.3 °F 61.9 °F 44% 29.84 in 10.0 mi West 6.9 mph - N/A   Clear
3:15 PM 86.2 °F 86.8 °F 62.4 °F 45% 29.84 in 7.0 mi West 6.9 mph - N/A   Scattered Clouds
3:35 PM 86.2 °F 86.3 °F 61.3 °F 43% 29.84 in 10.0 mi NNW 5.8 mph - N/A   Clear
3:55 PM 85.6 °F 85.7 °F 60.8 °F 43% 29.84 in 10.0 mi Calm Calm - N/A   Clear
4:15 PM 85.5 °F 85.7 °F 61.3 °F 44% 29.85 in 10.0 mi WNW 4.6 mph - N/A   Scattered Clouds
4:35 PM 86.9 °F 87.2 °F 61.7 °F 43% 29.85 in 10.0 mi West 3.5 mph - N/A   Clear
4:55 PM 86.2 °F 85.6 °F 59.4 °F 40% 29.85 in 10.0 mi West 3.5 mph - N/A   Clear
5:15 PM 86.2 °F 85.6 °F 59.5 °F 40% 29.85 in 10.0 mi SSW 3.5 mph - N/A   Clear
5:35 PM 86.4 °F 86.3 °F 60.4 °F 42% 29.85 in 7.0 mi WSW 3.5 mph - N/A   Clear
5:55 PM 86.2 °F 87.1 °F 63.1 °F 46% 29.86 in 10.0 mi SSW 6.9 mph - N/A   Scattered Clouds
6:15 PM 85.1 °F 86.1 °F 63.1 °F 48% 29.86 in 10.0 mi SSW 3.5 mph - N/A   Scattered Clouds
6:35 PM 84.9 °F 85.9 °F 63.5 °F 48% 29.87 in 10.0 mi SW 5.8 mph - N/A   Scattered Clouds
6:55 PM 84.2 °F 85.6 °F 64.0 °F 51% 29.87 in 10.0 mi SW 6.9 mph - N/A   Scattered Clouds
7:15 PM 83.1 °F 84.4 °F 64.0 °F 52% 29.88 in 10.0 mi SSW 3.5 mph - N/A   Clear
7:35 PM 82.6 °F 84.1 °F 64.2 °F 54% 29.88 in 10.0 mi SSW 3.5 mph - N/A   Clear
7:55 PM 81.7 °F 83.3 °F 64.4 °F 56% 29.89 in 10.0 mi SSW 3.5 mph - N/A   Scattered Clouds
8:15 PM 80.6 °F 82.5 °F 65.5 °F 60% 29.88 in 10.0 mi Calm Calm - N/A   Mostly Cloudy
8:35 PM 79.9 °F - 65.8 °F 62% 29.89 in 10.0 mi Calm Calm - N/A   Overcast
8:55 PM 79.0 °F - 66.2 °F 65% 29.90 in 10.0 mi Calm Calm - N/A   Mostly Cloudy
9:15 PM 78.6 °F - 66.2 °F 66% 29.89 in 10.0 mi South 3.5 mph - N/A   Mostly Cloudy
9:35 PM 77.7 °F - 66.4 °F 68% 29.90 in 10.0 mi South 3.5 mph - N/A   Mostly Cloudy
9:55 PM 77.5 °F - 66.6 °F 69% 29.91 in 10.0 mi Calm Calm - N/A   Overcast
10:15 PM 77.0 °F - 66.7 °F 70% 29.92 in 10.0 mi Calm Calm - N/A   Overcast
10:35 PM 75.6 °F - 66.7 °F 74% 29.91 in 10.0 mi South 3.5 mph - N/A   Scattered Clouds
10:55 PM 75.2 °F - 66.6 °F 74% 29.91 in 10.0 mi Calm Calm - N/A   Scattered Clouds
11:15 PM 74.3 °F - 66.9 °F 78% 29.91 in 10.0 mi Calm Calm - N/A   Scattered Clouds
11:35 PM 72.5 °F - 67.1 °F 83% 29.89 in 10.0 mi Calm Calm - N/A   Scattered Clouds
11:55 PM 72.9 °F - 67.1 °F 82% 29.91 in 10.0 mi Calm Calm - N/A   Mostly Cloudy